Theta_e
344 344 343 343 343 344 342 342 343 344 343 341 341 340 342 341 342 340 339 339 339 342 340 341 343 345 345 345 345 345 345 344 344 344 342 341 340 339 338 337 336 336 335 334 332 332 331 330 330 329 329 329 328 326 325 325 324 323 322 323 323 323 321 320 321 321 321 320 321 321 320 320 320 320 320 319 318 319 319 319 319 319 319 319 319
344 344 342 344 343 344 344 344 343 344 340 342 344 343 340 342 340 339 337 338 338 342 341 341 341 346 346 345 345 345 345 343 342 342 340 340 338 337 335 334 334 334 333 333 332 331 329 329 328 327 327 326 326 325 324 323 322 322 322 322 322 322 321 320 320 320 320 320 319 320 320 319 320 320 319 319 318 319 318 318 318 318 318 318 318
344 344 343 343 343 344 343 343 341 340 342 343 346 343 342 340 340 338 338 338 338 341 342 344 345 345 345 343 343 344 343 343 340 339 337 337 337 335 333 332 332 332 332 331 330 330 330 329 329 327 325 325 324 324 323 323 322 322 321 320 320 321 321 320 320 320 319 319 319 319 319 318 318 319 319 319 318 318 318 318 318 318 318 317 317
344 344 344 342 342 341 342 341 339 339 341 343 343 345 344 344 343 344 342 342 341 343 347 346 345 342 342 341 343 343 341 337 335 335 336 337 335 336 334 331 331 330 329 328 328 328 328 327 327 327 325 325 325 324 324 324 323 322 321 320 320 320 320 320 320 319 319 318 319 319 319 319 318 318 318 319 318 317 317 317 318 317 317 317 317
346 345 343 342 341 343 341 341 342 341 344 346 347 347 346 344 347 347 345 347 347 348 346 347 346 344 342 341 342 339 337 333 333 334 335 336 335 333 334 333 331 330 328 328 327 327 327 327 327 326 326 325 324 324 323 322 322 322 322 320 320 319 319 319 319 319 318 318 318 318 318 318 318 318 317 317 318 317 317 316 317 317 317 317 317
347 348 347 347 347 344 345 344 346 347 347 348 345 345 343 344 346 347 346 347 346 347 345 345 343 343 343 342 341 339 337 333 332 332 336 334 333 332 329 330 329 331 329 328 327 326 326 325 325 325 324 323 322 322 323 323 322 320 320 320 319 319 318 318 317 317 318 318 317 317 317 317 317 317 317 317 316 317 318 317 316 317 317 316 316
349 349 348 347 345 346 346 349 349 349 348 348 347 348 348 347 347 345 346 345 344 345 343 343 342 341 341 342 339 336 334 334 333 334 332 332 332 328 328 326 326 327 327 327 326 325 325 324 323 323 322 322 322 321 321 320 320 320 319 318 317 317 318 317 317 317 317 317 317 317 316 316 317 317 317 317 316 316 317 317 316 316 317 316 316
348 348 348 347 347 346 348 350 349 348 347 348 349 347 348 348 348 347 343 343 342 343 344 342 342 341 341 340 338 334 332 332 332 331 330 330 326 327 327 324 324 325 325 325 326 325 323 323 322 322 322 321 321 321 320 320 320 319 317 317 316 316 316 316 317 318 317 317 317 317 317 317 316 317 317 317 317 317 316 316 316 316 316 316 315
348 349 349 348 348 348 348 348 348 347 346 347 347 348 348 348 347 346 346 343 342 340 342 342 340 340 340 338 335 333 333 333 333 332 331 327 325 324 324 324 323 319 323 324 326 324 322 321 320 320 320 320 319 319 318 319 319 317 316 315 315 315 315 315 316 317 318 317 317 318 317 316 316 316 317 317 317 317 316 316 317 316 316 316 315
348 348 349 349 349 348 348 348 347 347 347 347 347 349 349 348 345 344 345 344 341 341 340 339 339 338 337 334 333 332 332 333 333 331 328 324 324 323 324 321 319 320 321 323 324 324 323 321 319 317 316 316 316 317 316 316 317 317 316 315 314 315 315 315 315 316 318 317 316 316 316 315 316 315 315 316 315 315 316 316 317 317 316 316 315
347 348 349 347 347 347 347 347 347 347 346 344 347 348 346 347 345 343 343 343 342 343 341 340 337 336 333 333 333 331 332 331 332 330 325 324 322 322 321 320 319 318 320 321 321 324 323 320 316 318 316 314 316 315 315 316 318 316 315 315 315 315 315 315 316 317 317 316 316 316 316 315 315 315 315 315 316 316 315 316 317 317 316 316 315
347 349 349 348 348 347 346 347 346 346 344 343 345 345 343 343 343 341 340 341 344 343 343 339 337 333 330 330 330 330 330 330 330 328 326 324 323 322 321 318 319 318 316 318 319 319 321 321 320 318 314 315 314 313 312 313 315 316 314 315 316 317 316 316 317 316 316 316 315 316 315 315 314 313 314 315 315 315 315 316 317 317 316 316 315
347 348 348 347 347 347 348 347 347 345 345 345 346 345 344 343 341 342 339 337 339 342 341 339 333 328 328 327 327 328 328 329 328 326 325 323 323 321 320 319 319 318 318 317 315 316 317 318 317 317 316 312 311 311 310 311 312 313 314 315 317 318 317 316 316 315 315 315 315 314 314 314 313 312 313 313 313 314 315 316 316 316 316 316 315
347 348 349 348 347 346 347 347 346 344 345 348 346 344 344 342 342 339 340 337 336 340 338 336 331 329 325 324 324 325 327 328 327 325 325 324 324 323 322 319 317 319 318 316 315 313 313 315 316 316 315 316 316 315 314 312 313 313 313 315 316 316 315 315 315 315 315 314 314 314 314 313 313 312 313 313 314 314 315 315 315 315 316 315 315
347 347 347 347 347 346 347 347 345 344 344 345 345 344 343 341 341 338 336 338 337 340 338 338 330 331 330 326 321 321 324 324 326 326 324 324 323 321 320 317 315 316 316 316 315 314 312 313 314 315 316 317 315 315 316 315 314 313 313 316 316 313 313 314 315 314 314 313 313 313 313 312 312 313 313 313 314 315 315 316 315 315 315 315 315
346 345 345 346 347 346 347 346 346 345 344 345 344 342 343 341 341 339 338 334 335 336 339 339 334 330 323 323 324 322 317 318 320 323 325 322 321 321 320 317 316 315 316 314 313 314 314 314 313 315 317 316 316 315 315 316 311 313 314 316 313 312 312 312 313 313 313 313 313 313 312 312 313 313 314 314 315 315 315 315 315 314 314 314 314
346 346 345 346 347 346 347 347 344 345 344 344 345 343 342 341 340 338 338 335 333 335 337 338 337 335 329 324 321 319 320 320 319 319 322 320 320 321 320 318 316 316 314 313 315 315 313 312 315 316 316 316 316 315 316 314 315 316 318 314 313 311 310 311 311 311 312 312 312 313 312 312 313 313 314 314 315 315 314 314 314 314 314 314 314
346 346 345 345 346 346 348 347 346 344 344 344 346 344 342 342 341 340 337 337 335 334 332 336 337 336 337 333 333 325 324 322 321 316 321 322 321 318 319 319 318 316 315 313 313 313 314 314 316 316 316 316 316 316 315 315 316 316 318 315 312 312 310 309 309 310 311 311 312 313 312 312 313 313 314 314 314 314 314 314 313 313 313 314 314
346 345 346 346 347 347 348 347 346 345 345 344 344 344 342 342 342 340 338 337 337 332 332 332 334 334 334 335 334 333 331 324 319 320 314 317 319 319 318 318 319 316 314 313 313 314 315 314 314 314 315 316 316 316 316 316 311 313 312 311 310 310 311 308 308 309 310 311 312 312 312 312 313 313 314 314 313 313 313 313 313 313 313 314 314
345 344 346 346 346 346 347 347 345 345 344 343 344 344 343 343 342 341 339 337 337 333 333 332 329 330 333 332 331 331 332 331 330 324 320 316 315 319 319 319 319 318 316 314 313 314 315 313 313 313 315 314 315 315 316 315 316 317 314 310 310 310 310 309 307 308 310 311 312 312 312 312 313 313 313 313 312 311 311 311 312 313 313 314 313
344 345 345 346 345 346 347 345 344 345 344 344 344 343 343 342 340 339 338 338 337 337 334 332 332 330 329 329 329 328 328 329 329 328 322 321 321 314 315 319 319 318 317 317 315 315 314 313 313 314 316 316 315 314 314 316 315 316 311 310 309 309 309 309 308 308 308 310 311 311 312 312 313 313 313 312 311 311 311 311 312 312 312 312 312
345 344 345 345 345 346 346 345 345 344 343 343 344 343 341 341 341 340 340 339 339 337 335 334 333 332 332 330 328 327 327 326 326 325 325 324 320 316 318 316 313 315 318 316 316 314 315 314 315 312 314 315 315 315 315 316 315 313 310 308 308 307 308 308 308 308 308 309 309 309 311 311 312 312 312 311 311 311 310 311 312 312 312 311 311
344 345 345 346 346 346 346 346 346 345 343 342 343 342 341 341 340 341 339 338 337 337 337 336 334 333 332 330 329 327 325 323 324 324 324 323 321 319 319 317 317 315 317 316 314 314 313 314 313 312 315 315 315 314 316 316 309 306 305 307 306 308 307 308 308 309 308 308 308 308 310 311 311 311 311 310 310 310 310 311 311 311 311 310 310
343 343 344 345 345 344 346 346 345 345 343 342 343 342 340 339 340 340 339 339 338 336 336 334 335 333 333 332 331 331 329 328 328 328 326 324 323 321 318 320 318 317 317 316 315 314 312 313 312 313 313 313 314 315 314 314 310 308 312 307 307 306 307 308 308 308 309 308 307 308 310 310 310 310 310 310 310 310 311 311 311 311 310 310 310
342 342 344 344 344 344 344 344 344 344 344 343 342 341 341 340 339 338 337 337 336 336 334 335 335 333 332 333 332 331 329 330 330 329 328 327 325 320 319 320 316 314 314 314 312 312 312 312 312 312 312 313 312 313 314 314 313 309 311 311 306 305 305 307 308 307 309 308 308 308 308 308 309 310 309 309 310 311 310 310 310 309 309 309 310
342 342 343 343 343 344 345 346 345 344 343 343 341 341 340 338 338 337 337 337 336 336 335 335 334 334 335 332 331 330 330 332 331 330 328 326 323 321 320 319 319 315 313 311 311 308 309 311 311 312 311 312 312 313 313 312 314 308 307 307 311 305 304 306 306 307 307 307 307 307 307 308 308 309 309 309 310 310 310 309 309 308 308 308 308
341 343 343 344 344 344 346 347 345 344 343 342 341 341 341 339 337 337 336 335 334 334 334 333 332 333 334 332 331 331 330 330 330 329 328 327 325 323 321 317 315 316 311 311 310 308 309 309 310 310 311 313 313 313 312 313 311 305 310 313 313 307 309 304 306 306 307 307 307 307 306 306 307 307 307 308 309 309 309 308 308 308 308 308 308
343 343 344 343 343 343 345 345 345 343 342 341 341 339 339 337 336 336 334 334 334 332 332 332 333 334 334 333 331 329 330 329 330 329 328 327 326 325 324 320 314 311 312 309 309 307 310 307 308 310 310 311 312 313 310 304 312 311 310 314 312 311 306 305 305 305 306 305 306 306 305 306 306 306 307 308 309 308 308 308 308 308 308 307 308
344 344 343 344 343 345 345 344 343 343 342 341 340 339 338 336 335 333 333 332 332 332 332 331 331 331 330 331 329 328 328 331 329 327 327 327 326 324 323 319 317 312 310 307 308 308 309 309 306 307 310 310 311 312 309 311 310 308 311 312 311 313 309 305 305 305 305 304 305 304 305 305 306 306 307 308 308 308 308 308 308 308 307 307 308
344 344 343 343 343 343 344 342 343 342 341 340 338 338 336 333 333 332 332 332 330 330 330 329 330 331 330 329 328 327 328 328 326 326 325 324 321 321 320 319 318 314 311 308 309 312 310 311 311 308 308 308 309 310 311 310 308 310 311 311 311 311 306 306 306 304 304 304 304 303 304 305 305 306 307 307 308 308 307 307 307 307 306 306 307
344 345 343 342 343 342 342 341 341 340 340 339 338 336 334 332 332 330 331 330 328 327 328 327 328 327 327 325 325 324 325 323 323 322 322 321 320 318 318 319 318 319 315 313 309 313 315 310 310 309 307 308 307 310 308 309 309 308 310 312 311 308 306 310 306 304 304 303 303 303 304 305 304 304 305 306 307 307 307 307 306 305 305 305 305
345 345 342 341 342 341 341 340 340 339 338 338 335 334 332 332 331 329 329 328 325 325 325 325 325 324 324 322 322 321 321 320 319 319 318 318 319 316 317 317 318 319 316 315 311 312 314 311 309 308 308 309 309 308 309 308 308 309 309 310 311 309 310 310 305 305 305 303 303 302 302 303 302 304 304 305 306 306 306 305 304 303 304 304 304
345 344 342 343 342 342 341 339 338 338 337 335 334 333 331 330 330 329 327 325 323 324 324 323 322 322 322 320 319 319 320 318 317 317 315 316 316 316 316 315 314 316 315 314 310 312 312 312 310 308 308 309 306 306 306 308 308 310 308 310 311 310 309 309 311 305 303 303 303 302 301 301 302 304 305 305 304 304 304 302 301 302 302 303 302
344 343 343 343 342 341 340 338 338 337 335 334 332 331 329 328 328 328 326 323 323 322 322 320 320 320 321 319 318 318 318 317 317 314 313 312 311 310 311 312 311 314 315 312 309 312 309 310 308 308 307 307 306 306 307 307 308 309 308 308 309 309 308 310 310 311 302 304 303 302 302 301 300 301 301 301 300 300 301 300 300 300 301 302 299
344 344 343 342 341 341 339 338 337 336 334 333 332 330 328 328 326 325 325 323 322 321 320 319 318 319 319 319 318 318 317 317 315 314 313 312 311 310 310 310 312 313 313 313 312 311 309 307 309 306 307 305 307 306 306 308 308 307 306 307 308 310 310 310 310 311 302 302 302 302 301 301 301 301 300 300 300 300 300 300 300 300 299 300 299
343 344 343 341 340 340 338 337 336 334 333 331 330 328 327 327 325 323 323 323 322 321 319 318 317 318 318 317 317 317 317 315 313 313 312 313 311 310 311 312 314 314 315 314 314 312 309 307 307 304 307 306 305 305 305 306 307 308 307 307 308 310 310 310 310 311 306 303 303 303 302 302 302 301 301 301 300 300 300 300 299 299 299 299 299
343 342 341 341 339 338 337 335 334 333 332 330 328 327 327 326 324 323 323 322 322 320 319 318 318 317 317 317 316 316 314 314 313 311 312 312 310 310 309 309 311 313 313 312 312 311 309 306 305 307 308 307 308 307 306 305 307 307 308 308 307 309 310 311 311 310 306 304 304 303 303 302 303 302 301 301 301 301 300 300 300 300 300 300 300
342 341 340 339 338 337 336 335 334 332 331 329 327 326 324 323 323 324 324 322 321 319 318 318 317 317 317 316 316 315 313 314 312 311 312 312 310 310 309 308 308 309 309 310 310 309 307 306 307 306 307 305 305 307 307 306 305 305 306 308 309 310 309 310 310 311 311 311 311 310 305 305 303 302 302 302 301 301 300 300 300 300 301 301 301
341 340 339 338 337 337 335 334 333 332 331 329 327 325 323 322 322 322 322 321 320 318 318 317 317 316 317 316 316 314 313 314 312 312 312 312 311 310 309 309 307 307 307 307 307 307 308 307 306 307 306 308 308 306 306 306 305 305 305 306 306 308 309 309 308 310 311 310 307 304 305 305 305 306 305 303 301 301 301 301 302 302 302 301 300
340 339 337 337 336 336 335 332 332 332 330 327 326 323 322 322 322 322 322 321 318 317 318 317 316 316 316 316 315 314 314 314 314 313 313 311 311 310 310 310 307 306 306 306 307 306 306 306 305 305 306 306 305 307 307 306 306 307 308 305 304 305 307 309 310 308 309 308 307 308 305 305 306 305 303 303 303 303 303 304 305 305 304 301 299
340 339 338 336 334 334 333 332 331 330 327 326 324 323 322 321 323 322 322 319 318 316 316 315 316 316 315 315 314 313 314 315 311 311 311 311 311 309 309 308 308 308 307 307 306 304 304 304 304 306 305 305 305 306 304 305 305 304 307 307 306 308 307 307 309 310 309 307 307 307 307 309 309 309 309 308 309 307 307 305 306 304 303 301 299
340 339 337 336 334 333 331 330 330 327 325 325 318 311 313 321 323 322 321 320 317 316 315 314 315 314 314 315 314 314 312 309 307 304 302 304 308 309 309 309 308 308 307 306 305 305 305 303 304 305 304 304 304 306 306 307 307 307 306 308 306 306 306 306 307 310 310 309 307 306 307 309 308 308 309 307 309 309 307 307 306 306 303 300 299
339 338 336 334 334 333 331 328 327 326 325 323 307 303 303 307 320 323 321 319 317 315 315 314 314 314 314 313 314 313 312 309 308 300 300 300 299 300 303 305 308 311 309 306 305 307 304 304 305 305 304 304 306 307 306 306 308 306 306 306 306 305 304 302 301 306 312 309 307 305 306 309 308 306 307 307 308 308 308 307 303 302 301 300 299
338 338 335 334 333 332 330 328 326 324 325 311 301 301 301 302 309 322 321 318 316 315 314 314 314 313 313 313 314 313 311 309 309 307 303 298 297 297 298 298 297 294 296 309 309 305 305 305 305 306 306 306 306 307 305 306 305 306 307 307 306 305 305 303 303 303 307 309 306 305 304 307 308 306 306 307 308 309 307 303 301 301 300 300 299
337 335 334 334 332 331 329 326 324 323 326 302 300 300 300 300 302 313 319 318 315 314 314 313 313 313 313 312 312 310 310 310 308 307 307 305 299 296 297 297 296 297 294 292 293 311 309 307 308 306 306 306 306 306 307 307 308 305 305 304 307 306 306 304 303 303 305 309 307 306 302 306 307 305 304 307 308 309 308 303 301 300 300 300 299
335 334 334 333 332 330 328 326 325 325 325 302 299 299 299 298 299 306 319 317 315 314 314 313 313 313 313 312 312 311 311 310 309 308 308 306 305 304 305 305 305 304 294 292 294 292 300 310 309 307 308 309 306 308 309 308 306 305 305 305 307 306 305 304 305 305 308 310 308 306 303 304 305 304 304 306 307 308 308 303 299 300 300 299 299
334 333 333 331 330 328 326 324 324 324 324 298 298 297 297 297 298 303 319 316 314 314 314 314 314 314 312 312 313 312 313 310 310 309 309 307 305 304 304 304 306 307 307 307 307 307 307 308 311 310 310 309 309 309 311 309 308 308 308 307 307 306 305 307 307 310 309 309 310 308 302 303 305 303 304 305 306 306 307 303 301 300 300 299 299
334 333 333 331 328 326 324 322 322 322 320 296 297 296 296 297 297 314 317 315 314 313 313 313 313 313 313 313 313 312 314 311 306 299 304 308 306 304 304 306 307 308 308 311 302 304 313 313 310 311 313 313 300 310 310 310 310 310 309 308 308 307 306 305 303 305 305 308 308 306 304 302 305 303 302 305 306 305 306 307 302 301 300 300 299
331 330 331 330 329 327 324 322 321 322 317 299 296 296 296 295 300 314 315 314 313 313 314 313 313 313 314 312 312 311 313 311 303 296 297 301 306 305 305 306 306 306 307 313 296 294 294 294 293 292 291 292 293 292 292 291 301 305 306 303 302 306 304 301 302 302 302 305 307 309 304 300 303 303 302 304 304 303 305 306 308 302 301 300 299
331 329 329 329 329 327 325 324 323 322 319 303 295 295 295 294 304 314 315 313 313 313 313 314 314 313 312 310 311 312 312 311 296 295 294 303 307 305 306 305 304 304 306 309 310 308 291 291 292 291 291 292 291 290 291 292 290 296 305 301 304 303 302 303 300 301 303 305 307 308 303 300 303 303 301 303 303 304 304 305 305 305 302 301 301
330 329 329 329 329 327 325 325 317 322 321 304 295 295 295 294 305 316 315 312 312 312 312 313 312 312 312 311 309 309 311 307 293 294 294 301 306 306 305 305 303 303 304 308 309 307 307 307 306 307 304 300 304 306 306 293 292 297 306 306 304 303 301 301 301 301 300 303 309 309 301 301 301 302 302 299 298 302 305 304 305 306 307 306 306
Wind_Speed
8 7 7 6 6 6 6 6 6 5 6 5 5 5 5 5 5 5 5 4 4 4 5 5 4 3 4 5 4 4 4 4 5 5 5 6 7 10 12 12 11 11 12 13 12 13 12 12 12 11 11 11 10 10 10 9 9 8 8 8 8 10 10 10 10 9 10 10 10 10 10 10 11 11 10 11 11 11 12 11 11 11 12 12 12
8 7 7 7 6 6 5 5 5 4 5 5 4 4 5 4 5 5 5 5 4 5 4 4 4 4 4 5 4 4 4 4 5 5 6 6 7 9 12 11 11 11 12 12 12 12 11 11 11 11 10 10 10 9 9 9 8 8 8 8 8 9 9 9 9 9 9 9 10 10 10 10 10 10 10 10 11 11 11 10 10 11 11 12 12
7 7 6 7 6 6 6 5 5 5 5 4 4 4 4 4 5 5 5 4 4 5 5 3 4 4 5 5 5 4 4 4 4 5 6 6 6 7 10 12 11 11 11 11 11 10 10 10 11 11 10 9 9 9 9 8 8 8 8 8 8 7 7 7 8 8 8 8 8 9 9 9 9 10 10 10 10 10 9 9 9 10 11 11 11
7 7 7 7 6 6 6 6 5 6 5 5 5 5 4 4 4 3 3 3 4 4 3 3 3 4 5 5 5 5 5 5 6 1 5 5 5 6 6 9 11 12 11 10 10 10 9 10 10 10 9 9 9 8 8 8 8 8 8 8 7 7 6 6 6 6 7 7 7 7 8 8 9 10 10 10 9 9 9 10 10 10 10 10 11
7 7 7 6 6 6 6 6 6 5 5 5 5 4 4 4 4 4 4 4 4 4 4 4 4 4 4 5 5 5 6 8 7 4 4 3 3 4 5 6 8 10 10 10 9 9 9 9 10 9 9 8 8 7 7 7 7 7 7 7 6 5 5 5 4 4 5 6 6 6 6 7 7 7 9 10 8 8 7 9 10 9 9 9 10
7 7 7 7 6 6 6 6 6 7 6 6 6 6 5 5 5 5 5 5 5 5 5 5 4 4 4 5 5 5 6 7 5 4 3 3 4 3 4 5 5 6 7 9 8 9 9 9 9 8 8 7 6 6 6 6 6 7 6 5 5 4 4 4 4 3 3 4 4 5 6 6 7 7 7 8 9 9 8 7 9 10 9 8 10
8 8 8 7 8 7 8 6 6 7 7 6 6 5 5 6 5 5 5 5 5 5 5 5 5 5 5 4 4 5 4 3 5 4 4 4 3 3 2 2 3 5 6 7 8 8 8 8 8 7 7 6 5 5 5 5 5 5 5 5 4 4 3 2 3 4 5 4 4 4 5 6 6 7 7 7 7 8 10 9 10 10 10 8 9
9 8 8 8 8 7 7 6 6 5 5 6 5 5 5 5 5 5 5 6 6 6 5 5 5 5 5 4 5 4 4 4 4 3 4 3 4 3 3 3 3 3 4 6 6 7 7 7 6 5 5 4 3 4 5 5 5 4 4 4 4 3 4 4 5 5 5 6 6 6 7 8 9 9 9 8 8 9 10 9 9 10 10 8 8
9 9 8 8 7 7 6 6 6 5 5 6 6 6 5 5 5 5 5 5 5 6 5 5 5 6 5 5 5 5 5 4 4 3 3 3 3 3 3 3 4 4 3 4 6 6 7 6 6 5 3 3 2 3 4 4 4 4 3 3 3 3 3 3 4 6 6 6 8 8 7 8 10 10 10 10 10 10 11 11 11 9 10 9 7
9 9 8 7 6 6 6 6 7 6 6 6 6 6 5 5 5 5 5 5 5 6 6 6 5 6 5 6 4 4 4 3 3 3 3 3 3 3 3 4 4 4 3 3 5 6 6 6 5 4 3 2 1 2 4 5 5 3 3 3 3 4 4 4 4 5 7 7 8 8 8 8 10 10 11 11 11 11 11 12 12 11 9 9 10
10 9 7 7 6 6 6 7 6 6 6 7 6 6 6 6 6 6 5 5 4 5 6 7 6 6 5 5 4 4 4 3 3 2 3 3 3 3 3 4 3 3 3 3 3 4 5 6 6 6 6 4 3 3 4 5 7 5 2 3 3 4 4 5 5 6 6 7 9 8 8 9 10 11 11 12 12 13 13 12 13 11 9 10 11
10 9 8 7 6 6 6 7 7 7 7 7 6 6 7 8 7 7 7 5 4 5 7 7 6 6 5 4 4 4 3 2 3 3 3 4 4 3 4 4 4 4 4 3 3 4 4 4 4 4 6 6 2 2 1 3 5 5 3 4 5 6 6 5 6 7 7 8 9 9 9 9 11 12 12 13 13 13 13 13 12 11 11 11 11
10 9 8 7 7 6 7 7 7 7 7 7 7 7 7 7 6 6 8 7 6 6 6 7 8 7 4 4 4 2 2 2 3 4 4 4 3 4 3 3 4 4 4 3 4 4 4 4 4 3 4 6 7 6 1 3 1 3 4 5 5 7 6 6 6 7 8 8 9 10 10 11 12 13 14 13 14 14 14 13 13 12 12 13 12
9 10 9 9 8 7 7 7 7 7 6 6 7 7 7 7 7 7 7 7 6 8 8 8 8 7 8 6 4 3 3 4 5 5 5 4 4 3 3 3 4 4 4 4 5 5 5 4 4 3 2 2 3 4 6 8 7 4 3 3 4 5 6 6 7 8 9 9 10 12 12 12 13 14 14 14 14 14 13 13 13 13 13 13 12
10 9 8 9 8 7 7 7 8 7 6 7 7 8 8 8 9 7 7 6 6 7 9 9 5 6 6 6 6 6 6 6 6 6 6 5 4 5 4 5 6 5 4 4 4 4 4 5 4 3 2 1 2 2 2 0 6 5 2 2 3 5 6 7 7 8 10 11 12 13 13 13 13 13 14 14 13 13 13 13 13 14 15 15 14
11 10 9 9 9 8 7 7 7 7 7 7 8 9 8 8 9 8 7 7 7 8 8 8 5 8 8 6 4 6 6 10 8 7 7 7 6 5 5 5 6 6 4 4 5 4 4 5 5 4 3 2 2 1 2 1 7 7 5 3 3 5 6 6 8 8 10 11 13 13 13 13 13 13 13 13 13 12 12 13 14 14 14 15 15
10 11 10 9 9 8 7 7 8 8 7 8 7 8 9 9 10 9 9 7 8 7 8 7 7 7 4 5 4 5 7 2 9 6 7 7 8 7 6 6 6 5 5 5 4 5 5 5 4 4 4 3 4 3 3 1 3 0 6 7 5 4 6 7 8 8 10 12 13 13 13 13 13 12 13 13 12 12 13 13 14 14 14 15 15
11 11 11 10 10 9 8 8 8 8 8 8 7 8 9 9 10 9 9 9 7 7 7 6 6 6 6 5 4 4 3 5 5 4 7 6 6 8 8 8 6 6 5 5 6 5 6 5 6 5 5 5 3 3 1 2 1 1 2 6 4 4 4 6 7 8 10 11 12 12 13 13 13 12 12 12 11 12 13 13 14 14 14 15 15
12 11 11 11 10 9 9 9 8 8 8 8 7 8 8 9 8 8 8 8 8 7 8 7 6 6 6 5 6 5 5 3 5 3 6 7 7 7 8 8 7 7 7 6 7 5 4 5 6 7 6 5 4 2 4 2 3 4 8 5 3 3 3 3 5 8 9 11 12 12 13 13 13 12 12 12 12 12 13 13 14 14 14 15 15
12 12 11 11 10 9 10 9 9 8 8 8 8 8 8 8 8 9 8 8 8 7 8 7 8 7 7 7 6 5 6 7 8 8 7 4 8 7 7 8 8 7 7 7 7 6 6 6 6 6 5 5 4 5 2 1 2 4 6 4 3 3 3 3 4 7 9 10 12 12 13 13 13 13 13 12 12 13 13 14 14 15 15 15 16
13 12 12 12 10 9 10 10 9 8 8 8 8 9 10 9 9 9 9 8 8 8 7 7 8 7 7 7 7 7 7 8 8 7 7 7 5 8 8 7 7 7 7 6 5 6 7 7 6 5 4 4 4 3 3 1 2 2 6 4 3 2 3 4 5 6 8 10 11 12 13 13 13 13 13 12 13 13 14 14 14 15 15 16 16
11 13 12 12 12 10 10 10 10 9 9 9 9 9 9 10 9 9 8 8 7 7 8 7 7 7 7 7 8 8 8 7 7 8 8 9 7 6 8 9 8 8 8 7 7 6 6 6 5 6 5 4 4 3 2 2 2 2 6 3 2 2 4 4 6 7 8 9 10 11 12 13 13 13 13 13 13 14 14 14 14 14 15 16 16
11 12 12 12 11 11 10 10 10 9 9 9 9 9 9 8 8 9 9 9 8 8 8 9 8 7 8 8 7 7 7 8 7 7 7 7 6 7 7 9 8 8 8 9 8 8 7 6 6 6 4 4 3 2 2 3 4 5 5 3 0 3 3 4 6 6 7 8 9 10 11 12 12 13 13 13 13 13 14 14 14 15 15 16 16
11 11 11 12 11 11 11 10 9 10 10 9 8 9 8 8 8 8 8 8 8 7 8 8 10 8 8 8 8 8 8 9 8 6 7 7 7 7 7 7 5 6 7 8 8 8 8 7 7 5 5 3 3 2 2 3 6 5 5 7 2 2 3 5 5 6 6 6 8 9 10 11 12 12 12 13 13 13 13 14 14 14 15 15 16
11 12 12 14 11 11 11 10 9 9 9 9 9 9 8 8 7 8 7 7 7 8 7 8 8 8 8 8 8 8 9 8 8 8 7 6 7 7 9 2 5 4 6 8 7 8 7 7 6 5 5 4 3 3 3 2 4 5 7 9 5 4 3 5 6 5 5 5 6 8 9 10 11 11 12 12 13 13 13 13 13 13 14 14 15
12 13 12 13 13 12 11 11 10 10 11 11 10 9 9 8 8 8 8 7 7 8 8 8 8 9 8 7 8 8 8 8 7 8 8 7 8 8 7 4 6 5 5 7 8 7 6 6 6 5 4 4 3 3 2 1 4 6 2 5 8 5 2 4 5 6 6 7 7 7 8 10 10 11 12 12 13 12 12 12 13 13 13 14 15
13 12 13 14 14 12 11 11 11 11 11 10 9 9 9 8 7 7 7 7 8 8 8 9 8 9 9 8 7 7 7 7 7 7 7 8 8 7 7 7 6 6 6 6 7 9 6 6 6 5 5 3 3 3 2 1 5 4 5 6 2 10 2 1 4 5 6 7 7 7 8 9 10 11 12 12 12 12 12 12 13 13 14 14 15
13 14 14 13 13 13 12 13 12 11 11 11 10 9 9 9 7 7 7 5 6 9 8 8 9 9 9 9 8 8 8 8 8 8 9 8 7 6 6 7 6 7 6 6 7 7 7 6 5 5 4 5 3 3 3 3 4 5 9 4 2 5 7 1 3 5 6 7 6 7 8 8 9 10 11 12 12 12 12 13 14 14 14 15 16
12 13 14 13 14 14 12 13 12 11 11 11 11 10 9 7 7 7 7 6 7 7 7 7 8 9 9 10 9 8 8 7 7 7 7 6 6 6 6 7 7 7 6 6 7 6 8 7 6 7 6 4 4 3 4 4 6 2 3 3 2 3 6 1 4 4 7 6 6 7 8 9 10 11 11 12 13 13 13 14 14 14 15 16 16
12 13 14 14 14 15 13 13 12 12 12 12 12 10 9 7 7 7 7 6 7 6 6 7 6 6 7 7 7 7 5 5 5 5 5 5 6 6 7 7 7 7 6 6 5 7 5 7 5 5 6 5 3 3 3 3 9 4 4 2 4 2 2 5 5 6 6 5 5 6 8 9 10 11 12 13 13 14 14 14 14 15 16 16 17
13 13 14 15 15 15 13 13 12 13 12 12 11 9 9 7 8 7 7 7 7 7 6 6 6 6 7 7 7 6 4 4 4 4 4 5 5 6 6 6 6 6 6 5 6 5 2 6 5 1 5 5 3 3 3 2 7 3 5 3 3 4 7 7 10 7 6 5 5 6 8 9 9 11 12 13 14 14 14 15 15 15 16 16 16
14 14 15 15 16 15 14 13 14 12 12 12 10 9 9 8 8 7 7 8 8 7 7 6 5 7 7 8 7 6 5 5 5 4 4 5 5 5 6 6 5 5 5 5 7 4 3 4 5 4 5 4 3 4 4 3 8 8 3 4 1 6 8 4 12 7 7 5 5 6 7 8 9 10 11 12 13 14 15 15 14 15 15 15 14
16 15 16 15 15 14 14 13 13 12 13 11 10 9 9 9 8 8 8 9 8 7 7 7 7 7 8 8 7 6 5 5 4 4 5 5 5 5 5 5 5 6 7 6 7 6 4 3 4 5 4 4 5 4 3 2 2 3 4 2 2 4 2 4 4 10 6 5 6 7 8 9 9 11 11 12 12 13 13 13 13 13 14 15 15
17 16 15 13 13 14 14 14 13 13 13 12 11 10 10 9 9 7 7 9 9 8 7 8 8 7 7 7 7 6 6 5 4 5 5 5 5 5 5 5 6 6 7 6 6 5 6 5 5 5 5 5 4 3 2 2 2 3 4 3 2 3 3 3 4 4 7 4 5 7 9 9 10 11 11 12 12 12 12 13 14 14 14 14 15
16 14 14 14 14 14 14 13 14 13 13 12 11 11 10 11 10 9 8 9 9 8 8 9 9 8 8 7 7 7 5 6 6 4 4 5 4 5 5 5 5 5 6 6 4 5 6 6 6 5 5 5 5 3 4 3 2 3 4 2 2 2 2 2 3 2 9 4 5 8 9 10 11 12 12 12 13 13 13 14 14 14 14 14 15
15 13 14 14 14 14 14 14 14 13 13 12 12 11 12 11 10 10 9 9 8 9 9 9 10 9 9 9 8 8 7 7 7 5 5 4 4 4 4 3 3 3 2 2 4 2 5 6 6 6 6 5 4 4 3 2 3 3 3 2 3 2 3 3 2 3 2 3 7 9 10 11 12 13 13 14 14 14 14 14 14 13 13 14 14
15 14 13 13 14 15 13 14 14 14 14 13 13 12 11 10 10 10 10 9 9 9 10 10 9 10 10 9 9 9 8 8 7 7 6 6 5 4 4 4 3 4 2 3 5 3 5 5 6 3 4 4 4 2 2 3 3 4 4 3 3 3 2 3 4 3 5 9 11 12 11 12 14 14 14 14 14 14 14 13 13 13 13 14 14
15 14 14 13 13 15 14 15 14 14 14 13 13 13 11 11 10 10 9 9 10 10 10 10 10 10 9 9 9 9 9 9 8 7 6 7 5 5 5 5 6 5 5 6 4 4 5 5 5 5 4 4 4 3 2 2 3 3 3 3 4 4 3 3 3 2 4 4 5 4 6 10 10 11 13 13 14 14 13 13 13 14 14 13 12
16 15 15 15 13 14 14 14 14 14 14 14 13 12 12 12 12 11 10 10 10 9 10 10 10 10 9 9 9 10 10 9 8 8 7 7 5 6 6 6 7 8 7 6 5 6 5 5 5 5 5 5 4 4 4 1 2 3 3 3 4 2 3 3 4 3 3 4 6 9 10 10 13 12 12 14 15 14 14 13 14 14 13 11 10
16 16 16 15 13 13 13 13 13 13 13 13 12 12 12 12 11 11 11 10 10 10 10 10 10 10 10 9 9 10 10 9 9 8 8 7 6 6 6 6 7 7 6 6 6 6 5 5 5 5 5 4 4 3 1 2 4 5 3 3 5 4 5 4 4 4 4 5 7 7 6 8 9 10 12 14 12 10 13 12 12 10 7 8 12
14 15 15 15 15 14 14 14 14 13 12 11 11 11 12 12 11 11 11 11 10 10 10 10 10 9 9 9 9 10 9 8 8 7 6 4 6 7 7 7 8 7 7 6 6 5 5 5 5 4 4 4 4 4 4 4 3 2 2 2 5 5 5 6 5 4 3 6 8 9 9 8 8 9 8 9 9 12 11 9 9 9 13 13 14
16 14 15 15 15 15 15 14 14 11 10 9 11 16 13 12 12 10 10 10 11 10 10 10 9 10 10 8 8 8 11 10 9 9 9 6 4 2 7 8 8 7 7 7 6 6 5 5 5 5 5 4 4 3 3 2 1 1 3 4 5 5 6 6 6 4 3 5 8 9 9 8 8 9 9 9 9 10 10 10 11 11 12 15 15
17 15 15 16 15 15 16 15 14 11 10 9 17 16 15 14 12 11 10 10 10 10 10 10 10 10 9 9 8 10 10 9 9 10 9 7 3 2 1 0 2 2 8 7 5 5 5 5 5 5 4 4 4 3 4 3 3 3 3 3 4 5 5 7 7 5 1 4 8 10 9 9 9 10 9 10 9 9 11 12 14 14 14 13 15
17 14 15 16 15 14 13 14 13 11 11 13 18 17 15 14 12 11 10 10 10 10 11 11 10 10 10 10 9 8 9 10 10 9 8 7 5 4 4 3 4 8 8 3 3 6 5 5 5 5 4 4 4 4 4 3 3 4 3 4 4 4 6 6 7 7 7 7 8 9 10 9 9 10 10 9 9 9 11 13 13 12 13 14 15
15 16 15 15 14 14 14 14 12 11 9 15 19 19 16 15 14 12 10 11 11 11 11 12 11 11 10 10 9 8 8 11 10 10 10 8 4 5 6 5 3 3 5 5 7 3 3 5 4 4 4 3 4 5 4 2 1 3 3 4 3 4 5 7 7 9 9 8 8 9 11 10 9 11 11 10 9 10 11 12 14 15 15 15 15
16 16 15 15 14 14 14 14 13 12 11 16 19 19 17 16 16 13 11 12 12 12 13 13 11 12 12 11 10 10 10 12 10 11 11 10 9 7 7 8 8 5 2 1 4 4 4 4 3 4 4 3 4 2 3 2 3 3 4 4 4 5 6 8 10 11 10 9 8 8 10 9 10 11 11 10 10 10 11 14 15 14 14 14 14
17 17 15 14 12 12 12 11 11 11 9 20 20 20 18 17 17 14 11 11 11 12 12 12 12 12 12 11 11 11 11 12 11 12 11 11 10 9 9 9 9 8 7 7 6 5 5 4 3 3 3 5 4 3 3 4 4 4 3 5 6 7 8 9 11 10 8 6 5 6 10 10 11 11 11 12 11 12 11 13 12 11 12 14 15
14 14 13 12 14 13 13 11 10 11 10 22 20 21 19 17 18 12 11 11 11 11 11 12 12 11 12 12 11 11 11 12 12 12 11 10 11 10 10 10 9 7 7 3 3 1 1 3 3 2 2 6 7 6 6 4 2 2 4 5 6 7 8 8 8 6 7 6 7 6 8 11 10 11 12 12 12 12 12 11 13 13 15 16 17
13 14 14 13 12 13 14 13 12 12 10 18 22 21 19 18 15 11 10 10 10 11 11 11 12 11 12 13 12 11 11 12 13 13 10 10 10 11 10 10 8 7 7 5 4 2 2 4 6 6 6 5 4 5 4 3 3 4 5 5 6 5 6 8 8 7 7 8 5 3 8 12 10 11 13 12 12 12 11 11 12 15 15 15 16
14 15 14 13 11 13 15 16 14 13 11 16 21 21 21 19 16 13 11 11 11 10 10 11 10 11 12 14 13 12 12 10 16 14 12 10 9 10 10 10 9 8 8 7 5 4 3 0 2 3 2 2 1 2 4 4 5 4 5 7 6 6 7 7 8 8 8 8 4 5 10 10 12 11 12 12 12 10 11 11 14 14 15 14 14
13 13 13 14 14 12 14 15 15 16 11 16 22 23 21 21 17 11 11 11 11 11 11 11 10 10 11 11 12 11 11 12 18 15 14 12 9 10 10 9 9 9 8 8 7 8 7 6 6 6 6 6 6 7 7 11 10 8 7 7 7 7 7 7 8 8 8 6 4 6 10 11 12 11 12 12 12 11 10 13 13 13 12 13 13
Wind_Direction
174 170 174 177 166 169 169 169 177 178 173 203 188 180 183 195 185 197 206 198 175 179 182 183 180 156 154 144 152 148 146 145 151 134 117 111 106 96 96 96 102 105 107 105 106 107 109 108 107 104 102 100 98 95 92 89 89 87 79 72 72 75 67 60 55 53 50 46 42 41 41 34 29 30 33 34 24 25 31 25 24 23 18 22 20
170 171 170 167 165 166 171 168 176 167 181 184 184 185 186 190 191 202 200 206 184 176 191 181 176 153 153 145 154 155 157 156 144 133 118 100 100 106 99 102 105 107 107 108 109 110 111 112 109 105 105 104 102 100 97 93 90 85 81 73 69 73 71 63 56 53 51 48 42 37 36 31 24 21 21 33 23 21 23 18 18 18 11 11 14
169 169 166 165 166 168 174 166 172 169 185 176 178 198 201 192 200 200 202 200 195 162 208 178 157 154 150 162 157 158 156 150 140 122 122 119 113 113 108 105 106 106 105 106 110 114 117 117 114 110 107 109 107 104 102 100 95 89 83 77 71 67 71 68 60 54 51 49 43 37 34 29 24 17 11 17 27 12 15 7 8 13 8 3 6
169 170 166 163 166 171 168 172 168 168 181 179 178 201 201 205 213 207 219 208 189 177 185 169 164 164 180 156 158 164 148 89 50 217 116 119 130 125 118 118 112 111 112 111 115 117 118 115 115 116 115 113 112 111 107 104 102 97 87 80 74 68 63 64 62 54 50 45 39 34 26 24 21 18 14 7 22 8 6 1 360 9 3 353 4
169 172 165 163 160 170 171 172 169 170 173 181 184 192 211 196 204 204 198 198 179 168 181 157 186 173 180 150 172 163 139 129 177 170 132 127 122 123 130 124 116 114 116 122 122 125 121 122 122 125 124 120 116 113 107 100 95 96 97 86 78 70 63 58 57 52 42 40 33 25 18 12 9 9 9 4 3 355 357 358 350 354 346 354 1
170 174 177 162 161 175 171 175 170 168 174 181 192 195 204 202 193 195 182 192 178 172 182 173 168 161 173 168 171 145 155 150 145 137 116 107 104 128 136 136 143 129 122 120 126 128 127 125 123 120 119 114 111 106 102 100 99 94 92 91 85 75 62 53 43 35 31 28 26 17 10 1 358 356 353 354 351 342 336 348 342 333 335 354 348
177 178 179 173 173 180 184 180 176 181 185 190 199 200 208 202 190 197 172 193 180 179 184 164 162 172 163 176 145 156 120 126 135 139 121 111 133 103 102 121 114 140 139 135 128 125 126 127 129 128 130 128 118 115 108 99 94 94 92 88 71 56 44 28 23 27 16 9 4 3 357 353 345 342 343 332 334 337 336 338 338 332 331 344 341
178 183 185 184 186 185 182 173 170 187 193 187 201 201 201 199 189 192 180 188 184 175 180 154 166 159 159 166 155 149 142 149 145 143 120 142 116 122 118 121 152 131 151 139 139 126 127 129 130 135 122 119 91 91 103 106 99 87 74 72 79 72 40 15 4 359 10 8 358 2 359 352 345 338 336 330 324 330 328 322 319 323 323 331 341
182 184 194 194 192 184 175 164 175 187 193 192 201 200 186 191 184 192 192 180 187 179 154 148 154 154 161 167 154 153 150 156 143 120 111 113 135 131 127 119 105 117 183 149 140 142 131 125 122 114 107 70 74 62 66 78 95 87 77 57 45 42 44 27 358 350 356 6 358 360 356 347 342 337 334 331 326 326 326 322 312 310 317 330 338
190 187 198 200 191 182 168 172 184 188 192 199 204 198 184 186 179 189 187 188 184 177 154 147 155 155 160 158 148 145 138 138 138 143 138 139 137 134 129 125 154 170 152 174 154 149 148 141 131 123 122 139 138 96 48 48 37 67 82 76 28 15 13 1 359 348 350 9 353 350 350 344 337 337 333 329 328 325 322 319 316 315 310 321 321
195 190 197 200 189 181 170 180 193 192 196 202 196 193 189 180 183 180 187 195 185 180 154 150 155 157 158 156 139 133 139 139 168 168 148 153 138 135 147 148 158 163 153 169 161 157 159 161 177 178 142 146 119 50 25 9 1 358 30 26 28 10 357 351 352 349 356 2 350 347 348 343 337 334 330 326 325 325 322 318 315 315 311 312 316
196 190 195 197 192 183 173 185 197 195 197 203 195 189 192 185 183 185 181 176 168 160 154 150 136 132 142 125 109 120 130 167 183 168 171 164 161 169 159 155 163 160 171 159 161 155 165 176 196 162 143 132 88 60 35 3 5 354 19 3 1 356 349 346 346 350 356 354 347 346 345 339 334 328 325 322 321 320 320 318 318 317 313 310 309
194 192 195 195 197 186 181 194 198 200 199 206 199 196 190 188 181 186 186 183 169 165 155 157 147 146 143 103 120 114 123 195 199 194 193 183 173 185 156 167 163 165 158 152 145 154 163 176 178 162 166 143 164 168 221 218 103 10 12 5 353 339 341 339 342 347 346 350 343 339 335 332 328 325 322 320 321 321 320 322 319 315 313 311 309
197 194 198 194 196 193 189 194 202 205 204 203 202 195 186 182 180 184 193 189 181 169 159 159 174 167 165 169 162 175 196 217 211 209 208 204 188 184 172 186 176 171 149 170 158 169 167 167 173 165 172 187 165 168 181 187 158 84 26 3 344 331 337 342 341 345 343 344 338 332 330 329 327 324 324 325 324 322 321 324 323 319 314 312 309
194 195 202 202 200 196 192 198 207 208 201 205 197 195 190 185 186 194 183 188 185 175 173 202 193 177 176 168 188 200 196 220 221 218 212 213 202 192 188 196 185 179 171 176 175 185 169 167 159 165 163 233 229 206 184 259 78 100 71 23 6 350 352 348 347 346 341 336 332 327 329 330 327 327 326 327 324 322 326 327 326 325 324 321 314
200 196 204 204 203 198 193 200 207 213 205 202 199 196 192 189 193 196 193 182 187 180 191 207 218 174 182 208 202 217 221 198 197 199 205 209 207 210 189 214 197 171 184 193 179 187 178 164 173 164 193 213 271 247 255 117 126 179 138 92 69 30 5 1 351 348 334 332 327 328 333 331 328 329 329 327 325 329 330 328 325 325 324 321 320
205 200 203 205 203 201 197 200 205 208 210 207 203 202 194 193 196 196 196 198 187 182 192 202 227 215 239 198 159 213 253 117 172 167 193 207 204 209 197 215 210 184 200 204 185 183 185 179 179 168 196 205 222 241 264 207 188 176 141 108 83 51 26 7 352 344 331 329 328 332 333 331 330 330 328 327 332 334 331 327 326 324 322 322 320
204 203 204 207 205 202 201 202 202 203 207 209 200 201 201 195 196 200 202 206 207 188 192 194 218 226 250 263 319 330 354 129 185 194 179 214 205 200 204 207 214 199 214 202 201 190 186 188 172 199 198 217 225 252 242 213 242 184 358 69 44 52 49 8 351 339 330 331 331 331 331 330 331 330 328 333 337 334 329 327 325 324 324 323 323
207 205 207 207 205 205 203 210 204 204 205 209 203 202 198 199 195 201 204 206 205 208 200 192 197 222 226 247 264 263 266 231 243 157 183 184 216 191 205 207 204 217 211 214 201 187 186 211 179 209 186 203 217 224 224 154 87 81 74 64 45 20 46 29 348 336 331 331 329 329 329 329 329 330 330 337 338 331 328 326 324 324 324 325 325
204 207 207 207 206 207 209 210 209 206 203 205 203 201 200 197 199 204 208 207 204 212 205 199 204 207 209 222 231 244 252 250 267 277 286 210 195 200 197 202 198 209 222 217 205 179 187 217 195 202 193 202 197 211 229 189 158 139 112 70 49 16 358 6 342 334 335 328 326 327 327 327 329 329 332 338 335 330 327 326 326 326 327 329 329
204 205 208 207 204 210 211 209 210 207 203 205 201 201 200 199 199 205 207 210 213 215 221 210 208 230 190 218 227 232 235 242 254 259 262 270 241 178 192 188 203 203 212 221 209 172 193 202 220 200 175 188 220 217 220 180 140 138 89 71 34 9 342 337 330 336 335 325 321 324 324 325 327 329 333 335 333 328 328 328 328 329 331 331 329
204 208 210 208 204 208 213 210 209 209 207 205 199 201 200 203 203 208 209 212 218 221 224 226 220 225 218 222 224 226 237 240 238 242 246 249 269 202 190 183 199 200 195 201 199 193 197 196 202 213 195 199 204 202 186 179 141 106 85 61 36 353 337 330 330 338 329 321 321 323 322 322 326 330 332 333 330 329 329 329 330 331 332 330 329
200 207 210 210 205 209 212 209 209 209 210 203 199 199 203 201 206 210 214 221 221 222 228 236 233 229 226 223 226 226 231 230 231 228 239 240 239 253 205 190 228 193 186 195 200 195 206 188 208 211 189 217 205 207 170 111 95 90 108 136 125 342 338 334 336 336 326 320 323 323 320 324 330 331 332 332 329 329 330 330 332 333 331 330 329
199 205 210 210 208 209 211 210 209 208 208 207 198 200 202 202 202 210 217 222 234 234 233 233 234 234 229 227 228 235 234 238 238 238 233 238 246 253 260 243 246 174 175 179 192 192 203 190 206 196 205 207 202 164 126 193 109 122 236 140 125 345 353 335 341 332 315 315 320 321 326 331 332 330 331 332 330 330 330 331 333 334 331 329 328
199 204 206 206 208 209 209 207 205 206 209 207 202 201 199 205 212 219 223 222 222 227 230 222 224 228 227 227 237 232 235 237 241 240 233 245 248 251 254 260 221 164 163 178 188 198 194 192 199 196 201 201 197 182 164 226 118 90 309 147 129 121 327 344 334 327 317 309 314 325 331 333 331 330 331 331 330 330 329 331 330 329 329 326 325
203 207 203 205 208 209 209 207 205 202 204 205 201 200 199 208 209 220 223 225 228 220 226 228 224 227 234 231 227 233 235 236 240 240 237 233 239 247 264 208 231 201 178 197 191 184 185 198 196 193 197 191 192 162 214 175 137 122 300 288 147 145 144 322 326 322 314 318 323 327 327 326 325 327 328 327 325 324 326 326 327 327 325 323 321
207 207 206 203 206 205 205 204 199 201 201 200 198 200 201 213 215 218 226 224 222 218 217 218 219 220 222 228 232 233 234 231 229 234 230 235 243 243 235 214 202 220 198 211 186 206 189 187 189 188 198 175 186 192 182 180 95 121 256 243 204 141 140 153 309 315 312 317 319 316 316 316 319 320 322 319 318 321 325 326 326 324 321 320 318
211 208 204 202 200 203 201 201 199 200 198 196 194 198 196 206 215 210 211 206 211 213 220 213 219 221 224 226 233 233 229 232 228 229 237 238 239 238 229 222 219 206 206 212 207 211 187 168 178 187 181 185 199 152 119 241 162 160 224 254 294 151 131 86 293 309 308 310 314 315 312 312 313 316 316 314 318 324 324 324 323 320 318 316 315
203 207 203 197 203 202 197 199 198 197 194 195 195 200 188 192 204 195 200 191 203 202 214 221 217 222 223 223 227 233 231 227 231 233 231 238 236 234 228 224 228 242 203 215 208 215 171 187 193 181 198 187 187 156 190 221 98 315 291 287 273 276 84 230 245 280 287 293 309 310 313 314 317 318 318 319 321 322 322 320 318 315 314 312 312
202 205 201 194 202 199 197 197 194 194 195 195 197 192 181 189 194 195 194 186 196 203 206 212 213 208 212 212 215 223 218 206 213 210 216 221 229 230 231 232 230 236 237 238 212 198 179 195 226 161 189 185 168 198 183 216 108 241 264 273 277 15 108 232 229 242 258 283 303 305 305 308 311 315 317 315 315 315 316 315 313 312 310 310 310
200 203 200 199 199 196 199 196 191 196 193 195 191 183 184 185 185 193 181 186 197 202 203 205 203 206 202 205 205 211 179 197 180 189 206 212 218 226 229 239 232 236 251 242 251 148 174 178 198 148 154 164 191 162 203 227 139 222 247 259 263 51 262 212 202 203 257 272 301 304 308 311 306 305 306 305 306 311 311 311 311 309 307 307 306
196 198 203 197 196 189 193 195 194 189 191 192 182 180 182 186 184 191 185 191 200 202 195 195 194 200 198 197 197 195 176 176 189 189 200 213 224 229 228 225 228 235 236 244 256 144 186 163 161 172 161 169 197 214 198 220 135 205 278 253 120 226 251 169 171 189 213 264 285 298 301 303 299 297 300 301 304 306 308 307 306 303 302 301 300
197 196 196 186 187 181 181 183 183 181 190 184 182 181 184 186 187 195 183 194 201 200 194 189 192 197 194 198 186 183 170 192 186 190 204 204 209 228 234 219 222 213 219 227 233 133 136 130 155 175 159 173 205 229 236 203 230 209 252 250 276 292 286 287 166 167 192 229 273 294 299 296 297 298 299 299 297 296 298 299 298 298 298 298 299
198 191 185 182 183 182 184 183 184 184 183 181 180 182 187 185 184 187 187 195 200 195 192 190 187 191 188 194 182 171 174 190 186 200 187 191 200 206 206 216 211 206 215 218 225 168 157 170 172 167 167 209 232 172 235 264 264 264 278 285 264 289 321 298 300 139 148 235 274 291 293 291 292 292 288 288 289 290 291 293 293 294 293 293 296
196 186 183 180 181 183 183 184 184 184 184 181 180 183 187 185 184 183 187 193 196 192 190 191 185 180 182 187 179 168 169 183 186 198 168 192 193 198 199 204 211 207 202 225 229 185 164 168 172 175 177 188 237 182 194 196 255 295 280 245 278 264 274 286 286 316 137 258 267 285 282 283 284 282 283 282 284 285 286 287 287 287 289 293 296
189 183 182 180 180 182 182 185 183 180 183 179 181 186 187 186 185 185 186 190 194 194 194 189 186 182 185 183 179 171 176 181 185 177 185 182 190 180 183 182 183 176 179 219 258 207 171 161 176 189 166 178 209 223 208 246 242 259 278 303 261 231 275 263 263 283 107 253 264 266 269 271 272 273 274 275 276 277 279 278 278 281 288 293 294
187 176 178 181 183 182 181 184 182 180 182 179 182 184 184 184 188 187 187 189 192 194 193 189 184 184 184 185 178 176 179 182 180 185 178 180 183 170 175 164 140 110 76 208 211 193 172 171 164 164 156 190 191 200 232 262 205 225 220 250 282 292 289 283 274 271 253 233 239 245 254 259 263 266 265 266 268 267 270 273 278 287 289 289 290
187 176 175 181 184 183 182 184 184 181 182 181 182 180 179 180 190 188 187 187 190 192 188 188 183 187 183 185 177 179 180 182 180 180 171 175 171 165 162 147 122 114 180 203 196 180 184 164 165 159 190 194 182 218 174 215 278 287 282 263 243 235 261 279 282 275 305 318 330 297 258 255 257 256 262 263 266 270 272 276 279 280 282 282 289
186 175 176 180 180 184 184 183 184 184 183 182 180 178 178 181 188 184 184 184 187 189 187 187 185 184 184 183 179 181 182 182 178 171 169 168 167 164 153 136 134 159 195 184 181 177 180 167 171 180 179 187 208 201 191 208 271 283 291 293 281 285 291 308 303 307 303 308 288 241 247 268 272 272 276 270 264 266 266 265 271 272 275 286 291
189 177 176 179 177 183 181 181 184 184 182 177 175 173 179 182 184 183 181 182 184 183 185 187 184 182 184 181 180 183 183 180 176 170 169 170 166 164 154 157 162 180 187 179 177 179 179 187 186 180 187 177 187 230 156 208 232 231 225 310 305 308 306 300 283 300 322 322 325 326 289 263 262 257 255 259 245 237 257 261 273 268 280 298 313
192 179 176 176 174 180 180 181 183 181 177 174 169 171 177 184 185 182 181 182 182 180 182 184 181 182 181 180 182 183 182 159 155 162 152 143 168 169 168 174 175 182 189 183 183 185 184 191 188 187 190 191 199 183 207 217 237 317 38 307 289 288 302 298 297 289 297 323 326 322 318 319 312 313 316 328 340 329 320 304 318 348 333 320 310
191 178 177 177 175 178 178 179 180 172 173 173 161 167 175 180 183 181 179 181 181 180 181 180 181 183 181 178 179 139 110 122 129 124 124 154 252 249 176 176 182 186 187 187 187 189 187 191 196 190 198 203 195 201 226 227 285 266 250 251 278 304 295 296 290 291 315 317 318 314 316 318 317 312 316 321 333 327 333 329 344 325 308 305 303
194 179 175 177 179 179 178 177 175 174 174 170 158 168 177 182 181 178 177 178 180 180 181 181 181 179 181 176 162 129 140 137 143 145 150 163 163 23 47 229 4 204 189 185 191 188 190 200 191 199 209 200 191 198 219 215 199 236 271 289 291 296 309 317 318 319 129 327 319 314 312 320 316 314 319 318 323 325 330 329 318 301 293 291 295
195 186 176 179 176 174 175 178 175 176 182 154 160 166 174 177 181 173 175 175 179 180 183 182 180 179 178 176 168 167 177 178 167 160 161 158 152 148 135 80 57 38 30 21 189 181 200 211 194 204 208 203 194 203 217 212 221 219 230 260 271 292 302 307 309 312 332 324 316 312 313 317 313 315 314 315 317 326 324 306 292 285 282 284 290
188 189 179 176 176 175 174 176 178 174 181 154 164 165 171 176 173 175 177 177 178 181 182 184 183 178 176 175 171 172 172 158 169 176 176 166 148 143 131 119 64 26 10 21 11 9 259 225 215 203 215 198 205 207 210 227 294 280 281 267 277 302 307 301 311 318 311 319 301 306 317 315 316 319 315 317 319 322 318 322 329 306 293 288 286
189 190 178 175 174 176 177 179 179 176 177 155 163 166 171 178 173 180 180 178 182 182 183 184 181 178 177 175 173 174 171 172 184 180 179 177 173 170 180 192 195 165 132 36 313 294 300 285 226 217 195 219 220 205 161 191 234 250 271 291 310 304 308 310 308 297 293 283 279 306 302 315 325 318 314 321 323 318 315 327 310 295 286 283 281
191 192 184 176 173 173 172 172 176 176 165 155 165 169 173 181 177 186 182 179 183 184 183 182 180 179 177 178 177 178 173 178 187 183 180 176 174 178 184 188 194 191 197 201 208 217 222 240 252 234 205 200 220 205 190 199 221 255 296 307 309 301 295 285 275 267 272 298 300 288 303 319 322 314 317 321 322 319 321 308 303 312 301 288 283
189 191 190 176 176 176 174 168 173 177 154 162 167 171 174 183 178 186 184 180 184 183 181 181 178 179 176 178 179 180 179 183 173 174 185 173 176 179 182 186 191 190 199 147 117 191 305 236 242 273 28 44 35 35 25 0 293 264 261 256 256 260 266 279 296 312 302 318 310 295 304 318 321 318 319 320 322 320 318 319 325 325 314 300 289
186 189 194 187 181 178 177 177 175 177 153 170 170 170 173 181 181 189 179 182 183 183 182 180 181 177 179 179 182 184 179 187 152 167 174 178 179 183 184 185 188 190 199 154 109 118 282 336 3 25 42 38 39 47 62 49 352 338 298 286 273 279 297 304 307 312 318 318 315 356 326 314 326 323 318 319 323 315 317 322 326 320 310 297 284
186 190 191 193 182 181 182 185 182 173 166 170 170 170 174 178 187 185 179 183 181 182 182 182 184 181 180 179 182 185 181 176 149 168 166 184 191 187 187 185 185 194 202 190 172 174 131 263 332 324 302 290 288 249 225 194 176 230 252 264 297 309 294 296 307 315 312 303 27 21 326 319 322 322 320 321 314 320 323 326 326 326 321 316 328
188 187 191 197 196 183 187 188 172 178 167 165 175 173 171 178 191 189 183 182 180 182 180 180 186 184 177 172 186 185 187 145 155 160 168 184 202 189 189 188 190 197 202 196 191 185 186 199 209 209 224 211 225 233 219 194 189 202 236 256 272 279 291 300 305 304 304 316 43 22 330 324 321 324 324 323 322 321 326 329 327 327 328 335 331